Weather History for KIAB - May, 2014

Change the Weather History Date:

Tuesday, May 13, 2014

  Actual Average Record
Temperature  
Mean Temperature 54 °F -  
Max Temperature 64 °F 74 °F 86 °F (1998)
Min Temperature 45 °F 54 °F 44 °F (1997)
Degree Days  
Heating Degree Days 10    
Growing Degree Days 4 (Base 50)    
Moisture  
Dew Point 36 °F    
Average Humidity 54    
Maximum Humidity 84    
Minimum Humidity 27    
Precipitation  
Precipitation 0.00 in - - ()
Sea Level Pressure  
Sea Level Pressure 30.23 in    
Wind  
Wind Speed 15 mph (North)    
Max Wind Speed 21 mph    
Max Gust Speed 29 mph    
Visibility 10 miles    
Events      
Averages and records for this station are not official NWS values.
T = Trace of Precipitation, MM = Missing Value Source: NWS Daily Summary

Daily Weather History Graph

Daily Weather History Graph

Search for Another Location

Airport or City:

Trip Planner

Search our weather history database for the weather conditions in past years. The results will help you decide how hot, cold, wet, or windy it might be!

Date:

Astronomy

May. 13, 2014 Rise Set
Actual Time 6:21 AM CDT 8:30 PM CDT
Civil Twilight 5:52 AM CDT 8:59 PM CDT
Nautical Twilight 5:16 AM CDT 9:35 PM CDT
Astronomical Twilight 4:37 AM CDT 10:13 PM CDT
Moon 7:34 PM CDT (5/13) 5:36 AM CDT (5/13)
Length of Visible Light 15h 07m
Length of Day
14h 08m
Waxing Gibbous, 99% of the Moon is Illuminated
May 13
Waxing Gibbous
May 14
Full
May 21
Last Quarter
May 28
New
Jun 5
First Quarter

Hourly Weather History & Observations

Time (CDT) Temp. Windchill Dew Point Humidity Pressure Visibility Wind Dir Wind Speed Gust Speed Precip Events Conditions
12:03 AM 48.2 °F - 42.8 °F 82% 30.15 in 10.0 mi North 15.0 mph - N/A   Scattered Clouds
12:08 AM 48.2 °F - 41.0 °F 76% 30.16 in 10.0 mi North 20.7 mph 23.0 mph N/A   Mostly Cloudy
12:13 AM 48.2 °F - 42.8 °F 82% 30.16 in 10.0 mi North 18.4 mph 23.0 mph N/A   Scattered Clouds
12:23 AM 48.2 °F - 41.0 °F 76% 30.16 in 10.0 mi North 15.0 mph 24.2 mph N/A   Mostly Cloudy
12:58 AM 47.7 °F - 41.5 °F 79% 30.18 in 10.0 mi North 16.1 mph 28.8 mph N/A   Overcast
1:58 AM 46.6 °F - 41.2 °F 81% 30.20 in 10.0 mi NNW 13.8 mph - N/A   Mostly Cloudy
2:03 AM 46.4 °F 40.4 °F 41.0 °F 81% 30.19 in 10.0 mi North 13.8 mph - N/A   Scattered Clouds
2:58 AM 45.7 °F 40.6 °F 41.2 °F 84% 30.19 in 10.0 mi North 10.4 mph - N/A   Clear
3:58 AM 45.5 °F 40.3 °F 41.0 °F 84% 30.18 in 10.0 mi NNW 10.4 mph - N/A   Clear
4:58 AM 46.6 °F - 40.6 °F 80% 30.16 in 10.0 mi North 11.5 mph - N/A   Scattered Clouds
5:58 AM 46.6 °F - 40.5 °F 79% 30.18 in 10.0 mi NNW 11.5 mph - N/A   Clear
6:58 AM 46.6 °F - 39.6 °F 77% 30.19 in 10.0 mi NNW 13.8 mph 19.6 mph N/A   Clear
8:58 AM 50.2 °F - 38.7 °F 65% 30.23 in 10.0 mi North 18.4 mph - N/A   Clear
9:58 AM 52.7 °F - 37.8 °F 57% 30.27 in 10.0 mi North 16.1 mph 25.3 mph N/A   Clear
10:58 AM 55.6 °F - 37.8 °F 51% 30.30 in 10.0 mi North 20.7 mph 25.3 mph N/A   Clear
12:28 PM 59.0 °F - 33.8 °F 39% 30.28 in 10.0 mi NNW 17.3 mph 28.8 mph N/A   Partly Cloudy
12:58 PM 59.5 °F - 35.8 °F 41% 30.28 in 10.0 mi NNE 19.6 mph 27.6 mph N/A   Clear
1:58 PM 60.8 °F - 34.2 °F 37% 30.27 in 10.0 mi North 12.7 mph 25.3 mph N/A   Clear
2:58 PM 62.8 °F - 32.4 °F 32% 30.26 in 10.0 mi North 18.4 mph 25.3 mph N/A   Clear
3:12 PM 62.6 °F - 32.0 °F 32% 30.25 in 10.0 mi NNW 16.1 mph 21.9 mph N/A   Clear
3:54 PM 62.6 °F - 32.0 °F 32% 30.24 in 10.0 mi NNE 17.3 mph 24.2 mph N/A   Clear
3:58 PM 63.0 °F - 31.5 °F 31% 30.25 in 10.0 mi NNE 17.3 mph 24.2 mph N/A   Clear
4:03 PM 62.6 °F - 32.0 °F 32% 30.24 in 10.0 mi NNW 15.0 mph 21.9 mph N/A   Clear
4:43 PM 64.4 °F - 32.0 °F 30% 30.23 in 10.0 mi NNW 15.0 mph 20.7 mph N/A   Partly Cloudy
4:58 PM 63.7 °F - 30.9 °F 29% 30.24 in 10.0 mi North 15.0 mph 23.0 mph N/A   Partly Cloudy
5:58 PM 63.0 °F - 29.7 °F 29% 30.24 in 10.0 mi North 19.6 mph 24.2 mph N/A   Partly Cloudy
6:22 PM 62.6 °F - 28.4 °F 27% 30.22 in 10.0 mi NNW 17.3 mph 23.0 mph N/A   Partly Cloudy
6:58 PM 61.0 °F - 28.9 °F 30% 30.24 in 10.0 mi North 13.8 mph 19.6 mph N/A   Partly Cloudy
7:58 PM 60.4 °F - 29.1 °F 31% 30.26 in 10.0 mi North 15.0 mph - N/A   Partly Cloudy
8:58 PM 58.3 °F - 31.1 °F 36% 30.27 in 10.0 mi North 13.8 mph - N/A   Clear
9:58 PM 55.4 °F - 33.8 °F 44% 30.29 in 10.0 mi North 6.9 mph - N/A   Clear
10:58 PM 53.4 °F - 34.7 °F 49% 30.30 in 10.0 mi North 6.9 mph - N/A   Clear
11:58 PM 51.6 °F - 36.5 °F 56% 30.30 in 10.0 mi North 6.9 mph - N/A   Clear